Temp
4 4 4 4 4 4 4 3 4 3 3 3 4 4 4 4 4 4 4 3 3 2 2 2 2 2 2 2 3 3 3 3 2 3 3 3 3 3 3 3 3 3 2 2 2 2 2 2 2 2 2 2 2 2 1 1 1 1 1 1 1 1 1
4 4 4 4 3 3 3 3 3 3 3 3 3 3 4 4 4 4 4 3 3 3 3 3 2 2 2 2 2 3 3 2 2 2 3 3 3 3 3 3 3 3 2 2 2 2 2 2 2 2 2 2 2 2 1 1 1 1 1 1 1 1 1
4 4 3 3 3 3 3 3 3 3 3 3 3 3 3 3 4 4 4 3 3 3 3 2 2 2 2 2 2 2 2 2 2 2 2 3 2 2 3 3 2 2 3 2 2 2 2 2 2 2 2 2 2 1 1 1 1 1 1 1 1 1 1
3 3 3 3 3 3 3 3 3 3 3 3 3 3 3 3 4 4 4 4 3 3 3 2 2 2 2 2 2 2 2 2 2 2 2 2 2 2 2 2 2 2 2 2 2 2 2 2 1 1 1 1 1 1 1 1 1 1 1 1 1 1 1
3 3 3 3 3 3 3 3 3 3 3 2 2 2 3 3 3 4 4 4 3 3 3 3 2 2 2 2 2 2 2 2 2 2 2 2 2 2 2 2 2 2 2 1 1 1 1 1 1 1 1 1 1 1 1 1 1 1 1 1 1 1 1
3 3 3 3 3 3 3 3 3 3 2 2 2 2 3 3 3 4 4 4 3 3 3 3 2 2 2 2 2 2 2 2 2 1 1 1 1 2 2 2 2 2 1 1 1 1 1 1 1 1 0 1 1 1 1 1 1 1 1 1 1 1 1
3 3 3 3 3 3 3 3 3 2 2 2 2 2 3 3 3 4 4 4 3 3 3 3 2 2 2 2 2 2 2 2 2 2 1 1 1 2 2 2 2 2 1 1 1 1 1 1 1 0 -0 1 1 0 0 0 0 1 1 1 1 1 1
3 3 3 3 3 3 3 3 2 2 2 2 2 2 3 3 3 4 4 3 3 3 3 2 2 2 2 2 2 2 2 2 2 2 2 2 2 2 2 2 2 2 2 2 2 2 1 1 1 1 0 0 -0 -1 -1 -1 -0 1 1 0 1 1 1
3 3 2 3 3 3 3 2 2 2 2 2 2 2 3 3 3 3 3 3 3 3 2 2 2 2 2 2 2 2 2 2 2 2 2 2 2 2 2 2 2 2 2 2 2 2 2 1 1 1 0 -0 -1 -1 -1 -1 -0 0 0 0 0 0 0
3 2 2 3 3 3 3 2 2 2 2 2 2 2 2 3 3 3 3 3 3 3 3 3 2 2 2 2 2 2 2 2 2 2 2 2 2 2 2 2 2 2 2 2 1 1 1 1 1 1 1 -0 -1 -1 -1 -1 -0 0 -0 0 0 0 0
3 3 3 3 3 3 2 2 2 1 2 2 2 2 2 3 3 3 3 3 3 3 3 3 3 3 2 2 2 2 2 2 2 2 2 2 2 2 2 2 2 1 1 1 1 1 1 1 1 1 1 0 -0 -1 -1 -1 -0 0 0 0 0 0 0
3 3 3 3 2 2 2 2 2 1 2 2 2 2 2 2 3 3 3 3 3 3 3 3 2 2 2 2 2 2 2 2 2 2 2 2 2 2 1 1 1 1 1 1 1 1 1 1 1 0 0 0 0 -0 -1 -1 -0 0 0 0 0 0 0
3 3 3 2 2 2 2 2 2 1 2 2 2 2 2 2 2 2 2 2 2 2 2 2 2 2 2 2 2 2 2 2 2 2 2 1 1 1 1 1 1 1 1 1 1 1 1 1 0 0 0 0 0 -0 -0 -0 0 0 -0 0 0 0 0
3 3 3 2 2 2 2 2 1 1 1 1 1 2 2 2 2 2 2 2 2 2 2 2 2 2 2 2 2 2 2 2 1 1 1 1 1 1 1 1 1 1 1 1 1 0 0 0 0 0 0 0 0 -0 -0 -0 -0 0 -0 -0 -0 0 0
3 3 3 2 2 2 2 1 1 1 1 1 1 1 1 2 2 2 2 2 2 2 2 2 2 2 2 1 1 1 1 1 1 1 1 1 1 0 0 0 0 0 0 0 0 0 0 0 0 0 0 0 0 -0 -0 -0 -0 -0 0 0 -0 -0 -0
3 3 2 2 2 2 1 1 1 1 1 1 1 1 1 1 1 1 1 1 1 1 1 1 1 1 1 1 1 1 1 1 1 1 1 0 0 0 0 0 0 0 0 0 0 0 0 -0 -0 -0 -0 -0 -0 -0 -0 -0 -1 -1 -0 0 0 0 0
3 3 2 2 2 2 1 1 1 1 1 1 1 1 1 1 1 1 1 1 1 1 1 1 1 1 1 1 1 1 1 1 1 1 1 0 0 0 0 0 0 0 -0 -0 -0 -0 -0 -0 -0 -0 -0 -0 -0 -0 -0 -1 -1 -1 -1 -0 0 0 0
3 2 2 2 2 2 1 1 1 1 1 1 0 0 0 0 1 1 1 1 1 0 1 1 1 1 1 0 0 0 0 1 1 1 0 0 0 0 0 0 -0 -0 -0 -0 -0 -0 -0 -1 -1 -1 -1 -1 -1 -0 -1 -1 -1 -1 -1 -1 -0 0 0
3 3 2 2 2 2 2 1 1 1 1 1 0 0 0 0 0 0 0 0 0 0 0 0 0 0 0 0 0 0 0 0 0 0 0 0 0 -0 -0 -0 -0 -0 -0 -1 -1 -1 -1 -1 -1 -1 -1 -1 -1 -1 -1 -1 -1 -1 -1 -1 -1 -0 0
3 3 2 2 2 2 2 1 1 1 1 1 0 0 0 0 0 0 0 0 0 0 -0 -0 -0 -0 -0 -0 -0 -0 0 -0 -0 0 -0 -0 -0 -0 -0 -0 -0 -0 -0 -0 -0 -1 -1 -1 -1 -1 -1 -1 -1 -1 -1 -1 -1 -1 -1 -1 -1 -0 -0
2 2 2 2 2 2 2 1 1 1 1 1 0 0 0 0 0 0 0 0 -0 -0 -0 -0 -0 -0 -0 -0 -0 -0 -0 -0 -0 -0 -0 -0 -0 -0 -0 -0 -0 -0 -0 -0 -0 -0 -1 -1 -1 -1 -1 -1 -1 -1 -1 -1 -1 -1 -1 -1 -1 -1 -1
2 2 2 1 1 2 2 1 1 1 1 1 1 0 0 0 0 -0 -0 -0 -0 -0 -0 -1 -0 -0 -0 -0 -0 -0 -0 -0 -0 -0 -0 -0 -0 -0 -0 -0 -0 -0 -0 -0 -1 -1 -1 -1 -1 -1 -1 -1 -1 -1 -1 -1 -1 -1 -1 -1 -1 -1 -1
2 2 1 1 1 1 1 1 1 1 1 0 0 0 0 -0 -0 -0 -0 -0 -0 -0 -0 -1 -0 -0 -1 -1 -1 -1 -1 -1 -1 -1 -0 -1 -1 -1 -1 -1 -1 -1 -0 -1 -1 -1 -1 -1 -1 -1 -1 -1 -1 -1 -1 -1 -1 -1 -1 -1 -2 -2 -2
2 2 1 1 1 1 1 1 1 1 1 0 0 0 0 -0 -0 -0 -0 -0 -0 -0 -0 -0 -0 -1 -1 -1 -1 -1 -1 -1 -1 -1 -1 -1 -1 -1 -1 -1 -1 -0 -1 -1 -1 -1 -1 -1 -1 -1 -1 -1 -1 -1 -1 -1 -1 -1 -1 -1 -2 -2 -2
2 1 1 1 1 1 1 1 1 1 0 0 0 0 -0 -0 -0 -0 -0 -0 -0 -0 -0 -1 -1 -1 -1 -1 -1 -1 -1 -1 -1 -1 -1 -1 -1 -1 -1 -1 -1 -1 -1 -1 -2 -2 -1 -1 -1 -1 -1 -1 -1 -1 -1 -1 -1 -1 -1 -1 -2 -2 -2
1 1 1 1 1 1 1 1 1 1 0 0 0 -0 -0 -0 -0 -0 -0 -0 -0 -0 -0 -1 -1 -1 -1 -0 -0 -1 -1 -1 -1 -1 -1 -1 -1 -1 -1 -1 -1 -1 -1 -1 -2 -2 -2 -2 -2 -2 -1 -1 -1 -1 -1 -1 -1 -2 -2 -2 -2 -2 -2
1 1 1 1 1 1 1 1 1 1 1 0 -0 -0 -0 -0 -1 -1 -1 -1 -1 -1 -1 -1 -1 -1 -1 -1 -1 -1 -1 -1 -1 -1 -1 -1 -1 -1 -1 -1 -1 -2 -1 -2 -2 -2 -2 -2 -2 -2 -2 -1 -2 -2 -2 -2 -2 -2 -2 -2 -2 -2 -2
0 0 0 0 0 0 0 0 0 0 0 0 -0 -0 -0 -1 -1 -1 -1 -1 -1 -1 -1 -1 -1 -1 -1 -1 -1 -1 -1 -1 -1 -1 -1 -1 -1 -1 -1 -2 -2 -2 -2 -2 -2 -2 -2 -2 -2 -2 -2 -2 -2 -2 -2 -2 -2 -2 -2 -3 -3 -3 -3
-0 -0 -0 -0 -0 -0 -0 -0 -0 -0 -0 -0 -0 -0 -0 -1 -1 -1 -1 -1 -1 -1 -1 -1 -1 -1 -1 -1 -1 -1 -1 -1 -1 -1 -1 -1 -1 -1 -2 -2 -2 -2 -2 -2 -2 -2 -2 -2 -2 -2 -2 -2 -2 -2 -2 -2 -3 -3 -3 -3 -3 -3 -3
-1 -1 -1 -1 -1 -0 -0 -0 -0 -0 -0 -0 -0 -0 -0 -0 -1 -1 -1 -1 -1 -1 -1 -1 -1 -1 -1 -1 -1 -1 -1 -1 -1 -1 -1 -1 -1 -1 -2 -2 -2 -2 -2 -2 -2 -2 -2 -2 -2 -2 -2 -2 -2 -2 -3 -3 -3 -3 -3 -3 -3 -3 -3
-1 -1 -1 -1 -1 -1 -1 -1 -1 -1 -1 -1 -1 -1 -0 -0 -1 -1 -1 -1 -1 -1 -1 -1 -1 -1 -1 -1 -1 -1 -1 -1 -2 -2 -1 -1 -1 -2 -2 -2 -2 -2 -2 -2 -2 -3 -3 -3 -3 -3 -3 -3 -3 -3 -3 -3 -3 -3 -3 -3 -3 -3 -3
-1 -1 -1 -1 -1 -1 -1 -1 -1 -1 -1 -1 -1 -1 -1 -1 -1 -1 -1 -1 -1 -1 -1 -1 -1 -1 -1 -1 -1 -1 -1 -2 -2 -2 -2 -2 -2 -2 -2 -2 -2 -2 -2 -2 -3 -3 -3 -3 -3 -3 -3 -3 -3 -3 -3 -3 -4 -4 -4 -4 -3 -3 -3
-1 -2 -2 -2 -2 -2 -2 -2 -2 -2 -1 -1 -1 -1 -1 -1 -1 -1 -2 -2 -2 -2 -1 -2 -2 -2 -1 -1 -1 -1 -2 -2 -2 -2 -2 -3 -2 -2 -2 -2 -2 -2 -2 -3 -3 -3 -3 -3 -3 -3 -3 -3 -3 -3 -3 -4 -4 -3 -3 -3 -3 -3 -3
-2 -2 -2 -2 -2 -2 -2 -2 -2 -2 -2 -2 -2 -2 -2 -2 -2 -2 -2 -2 -2 -2 -2 -2 -2 -2 -2 -1 -2 -2 -2 -2 -3 -3 -3 -3 -3 -3 -3 -3 -3 -3 -3 -3 -3 -3 -3 -3 -3 -3 -3 -3 -4 -4 -4 -3 -4 -3 -3 -3 -3 -3 -4
-3 -3 -3 -3 -3 -3 -3 -3 -3 -3 -3 -2 -2 -2 -2 -2 -2 -2 -2 -3 -3 -3 -3 -3 -2 -2 -2 -2 -2 -2 -2 -2 -3 -3 -3 -3 -3 -3 -3 -3 -3 -3 -3 -3 -3 -3 -3 -3 -4 -4 -4 -4 -4 -4 -4 -4 -4 -3 -3 -3 -3 -4 -4
-3 -3 -3 -3 -3 -3 -3 -3 -3 -3 -3 -3 -3 -3 -2 -3 -3 -3 -3 -3 -4 -3 -3 -3 -3 -3 -3 -3 -2 -2 -2 -2 -3 -3 -3 -4 -4 -3 -3 -3 -3 -3 -3 -4 -4 -4 -4 -4 -4 -4 -4 -4 -4 -4 -4 -4 -4 -4 -4 -4 -4 -4 -4
-3 -3 -3 -3 -3 -3 -3 -4 -4 -4 -3 -3 -3 -3 -3 -3 -3 -3 -3 -3 -4 -4 -4 -4 -4 -3 -3 -3 -3 -3 -3 -3 -3 -3 -4 -4 -4 -3 -4 -4 -4 -4 -4 -4 -4 -4 -4 -4 -4 -4 -4 -4 -4 -4 -4 -4 -4 -4 -4 -4 -4 -4 -4
Height
3138 3139 3139 3139 3140 3140 3140 3140 3140 3140 3140 3140 3139 3139 3138 3137 3136 3136 3135 3134 3134 3135 3136 3137 3137 3138 3140 3140 3141 3141 3141 3141 3142 3142 3143 3143 3143 3144 3144 3144 3145 3146 3147 3148 3149 3149 3150 3150 3151 3152 3153 3153 3154 3155 3155 3154 3155 3155 3155 3155 3155 3155 3156
3138 3138 3138 3138 3138 3139 3139 3139 3139 3139 3139 3139 3139 3138 3138 3137 3136 3135 3134 3134 3133 3134 3135 3136 3136 3137 3137 3138 3139 3140 3140 3140 3140 3141 3142 3141 3142 3142 3143 3144 3145 3145 3146 3147 3148 3149 3149 3149 3150 3151 3152 3152 3153 3153 3154 3154 3154 3154 3154 3154 3154 3154 3155
3137 3137 3137 3137 3137 3138 3138 3138 3138 3138 3138 3138 3138 3137 3137 3136 3136 3135 3134 3134 3133 3133 3134 3135 3135 3136 3136 3137 3138 3139 3139 3139 3139 3140 3141 3141 3141 3141 3142 3143 3143 3144 3145 3146 3147 3148 3148 3149 3150 3151 3151 3151 3152 3152 3153 3153 3153 3154 3154 3154 3154 3154 3154
3136 3136 3136 3136 3136 3136 3137 3137 3137 3137 3136 3136 3136 3136 3136 3136 3135 3135 3134 3134 3133 3133 3134 3134 3134 3135 3135 3135 3136 3137 3138 3138 3138 3138 3139 3140 3140 3140 3142 3142 3142 3144 3144 3145 3146 3147 3148 3150 3150 3151 3151 3151 3152 3152 3153 3153 3153 3153 3153 3153 3153 3153 3154
3134 3135 3135 3135 3135 3135 3136 3136 3136 3135 3135 3135 3135 3135 3135 3135 3135 3134 3134 3134 3133 3133 3134 3134 3134 3134 3135 3135 3136 3136 3137 3137 3137 3138 3138 3139 3139 3140 3141 3142 3142 3143 3144 3145 3146 3146 3148 3149 3150 3151 3151 3151 3152 3152 3153 3153 3153 3153 3153 3153 3153 3153 3153
3133 3134 3134 3134 3134 3135 3135 3135 3134 3134 3134 3133 3133 3133 3133 3134 3134 3134 3134 3133 3133 3133 3134 3134 3134 3134 3135 3135 3135 3136 3136 3137 3137 3137 3138 3138 3139 3140 3141 3142 3142 3143 3144 3145 3146 3146 3148 3149 3150 3150 3151 3151 3152 3152 3152 3152 3153 3153 3153 3153 3153 3153 3153
3132 3133 3133 3133 3133 3134 3134 3134 3134 3133 3133 3132 3131 3131 3132 3133 3133 3133 3133 3133 3133 3133 3134 3134 3134 3135 3135 3135 3136 3136 3137 3137 3138 3138 3138 3139 3139 3140 3141 3142 3142 3143 3144 3145 3146 3147 3148 3149 3150 3150 3151 3152 3152 3153 3153 3153 3153 3153 3153 3153 3153 3153 3153
3131 3131 3131 3132 3133 3133 3133 3133 3133 3132 3132 3131 3131 3131 3131 3132 3133 3133 3133 3133 3133 3133 3134 3134 3134 3135 3135 3136 3136 3137 3137 3138 3138 3139 3139 3139 3140 3141 3141 3142 3143 3143 3144 3145 3146 3147 3148 3149 3150 3151 3151 3152 3153 3154 3155 3154 3153 3153 3153 3153 3153 3153 3153
3130 3130 3130 3131 3132 3132 3133 3133 3133 3132 3131 3131 3131 3131 3131 3132 3132 3133 3133 3133 3133 3134 3134 3134 3134 3135 3135 3136 3136 3137 3138 3138 3139 3139 3140 3140 3141 3141 3142 3142 3143 3144 3145 3146 3146 3147 3148 3149 3150 3151 3152 3153 3154 3155 3155 3154 3154 3153 3154 3153 3153 3154 3154
3129 3129 3129 3130 3131 3131 3132 3132 3132 3132 3131 3131 3131 3131 3131 3132 3132 3132 3133 3133 3133 3134 3134 3134 3135 3135 3135 3136 3137 3137 3138 3139 3139 3140 3140 3141 3141 3142 3142 3143 3144 3144 3145 3146 3147 3148 3149 3149 3150 3151 3152 3153 3155 3155 3155 3154 3154 3154 3154 3154 3154 3154 3154
3127 3128 3128 3129 3130 3130 3131 3131 3131 3131 3131 3131 3131 3131 3131 3132 3132 3132 3132 3133 3133 3134 3135 3135 3135 3136 3136 3136 3137 3138 3138 3139 3140 3140 3141 3142 3142 3143 3143 3144 3145 3145 3146 3147 3148 3148 3149 3150 3150 3151 3152 3152 3153 3155 3155 3154 3153 3154 3154 3154 3154 3154 3154
3127 3127 3128 3128 3129 3130 3130 3131 3131 3131 3131 3131 3131 3132 3132 3132 3133 3133 3133 3133 3134 3135 3135 3136 3136 3136 3137 3137 3138 3138 3139 3139 3140 3141 3142 3142 3143 3143 3144 3145 3145 3146 3147 3148 3148 3149 3150 3150 3151 3151 3152 3152 3152 3153 3154 3154 3153 3154 3154 3154 3154 3153 3153
3126 3127 3127 3128 3128 3129 3130 3130 3130 3130 3131 3131 3131 3132 3132 3133 3133 3133 3133 3134 3134 3135 3136 3137 3137 3138 3138 3138 3139 3139 3140 3140 3141 3141 3142 3143 3143 3144 3145 3145 3146 3146 3147 3148 3149 3149 3150 3150 3151 3151 3152 3152 3152 3153 3153 3153 3153 3153 3153 3153 3153 3153 3152
3126 3126 3127 3127 3127 3128 3129 3129 3129 3129 3130 3130 3131 3132 3132 3133 3133 3133 3133 3134 3135 3136 3137 3137 3138 3138 3139 3139 3140 3140 3140 3141 3141 3142 3142 3143 3144 3144 3145 3146 3146 3147 3147 3148 3148 3149 3150 3150 3151 3151 3151 3152 3152 3152 3152 3152 3152 3152 3152 3152 3152 3152 3151
3125 3126 3126 3126 3126 3127 3128 3127 3128 3128 3129 3129 3130 3131 3132 3133 3134 3134 3134 3134 3135 3136 3137 3137 3138 3138 3139 3139 3140 3140 3141 3141 3142 3142 3143 3143 3144 3145 3145 3146 3146 3147 3147 3148 3148 3149 3150 3150 3150 3150 3151 3151 3151 3152 3152 3152 3151 3151 3151 3151 3151 3150 3150
3124 3125 3126 3125 3126 3126 3126 3126 3127 3128 3128 3129 3130 3131 3132 3133 3134 3134 3134 3135 3135 3136 3137 3137 3138 3138 3139 3140 3140 3141 3141 3142 3142 3142 3143 3143 3144 3145 3145 3146 3146 3147 3147 3148 3148 3149 3149 3150 3150 3150 3150 3150 3150 3151 3151 3151 3151 3150 3149 3150 3149 3149 3149
3124 3124 3125 3125 3125 3125 3124 3125 3126 3127 3128 3129 3130 3131 3132 3133 3133 3134 3134 3135 3136 3136 3137 3137 3138 3138 3139 3140 3140 3141 3141 3142 3142 3142 3143 3143 3144 3144 3144 3145 3146 3146 3146 3147 3147 3148 3148 3148 3148 3148 3149 3149 3149 3149 3149 3150 3150 3149 3149 3148 3148 3148 3147
3123 3123 3124 3124 3124 3124 3123 3124 3125 3126 3127 3128 3129 3130 3131 3132 3133 3133 3134 3135 3136 3136 3137 3137 3138 3138 3139 3139 3140 3140 3141 3141 3142 3142 3142 3143 3143 3143 3143 3144 3144 3145 3145 3145 3146 3146 3146 3147 3146 3146 3147 3147 3146 3147 3148 3148 3148 3148 3148 3147 3146 3146 3146
3122 3122 3123 3123 3123 3123 3123 3123 3124 3125 3126 3127 3128 3129 3130 3131 3132 3133 3133 3134 3135 3136 3136 3137 3137 3138 3139 3139 3139 3140 3140 3141 3141 3141 3141 3142 3142 3142 3142 3142 3143 3143 3143 3143 3144 3144 3144 3144 3144 3144 3145 3145 3144 3144 3145 3146 3146 3146 3146 3146 3145 3144 3144
3121 3121 3121 3122 3122 3122 3123 3123 3123 3124 3125 3126 3127 3128 3129 3130 3131 3132 3132 3133 3134 3135 3135 3136 3136 3137 3137 3138 3139 3139 3139 3140 3140 3140 3140 3140 3140 3140 3140 3140 3141 3141 3141 3141 3141 3142 3142 3142 3142 3142 3142 3142 3142 3142 3143 3143 3143 3144 3144 3144 3143 3142 3142
3120 3120 3120 3120 3120 3121 3122 3122 3123 3123 3124 3125 3126 3127 3128 3128 3130 3130 3131 3132 3133 3133 3134 3135 3135 3135 3136 3136 3137 3138 3138 3138 3139 3139 3139 3139 3139 3139 3139 3138 3139 3139 3139 3139 3139 3139 3140 3140 3140 3140 3140 3140 3140 3140 3141 3141 3141 3142 3142 3142 3141 3140 3140
3118 3117 3118 3119 3119 3119 3120 3121 3121 3122 3123 3124 3125 3126 3126 3127 3128 3129 3129 3130 3131 3132 3132 3133 3133 3134 3134 3134 3135 3136 3136 3137 3137 3137 3137 3136 3136 3136 3136 3136 3137 3137 3137 3137 3137 3137 3137 3137 3137 3137 3138 3138 3138 3138 3139 3139 3139 3140 3140 3140 3139 3138 3138
3116 3116 3116 3117 3116 3116 3117 3119 3120 3120 3121 3122 3123 3124 3125 3126 3126 3127 3128 3128 3129 3129 3130 3130 3130 3132 3132 3132 3133 3133 3134 3134 3134 3134 3134 3133 3133 3133 3133 3134 3134 3134 3134 3134 3135 3135 3135 3135 3135 3135 3135 3136 3136 3136 3136 3137 3137 3137 3137 3137 3137 3136 3135
3115 3115 3115 3114 3114 3115 3116 3117 3118 3119 3120 3120 3121 3122 3123 3124 3124 3125 3126 3126 3126 3126 3127 3127 3128 3130 3130 3130 3130 3130 3130 3131 3131 3131 3131 3130 3129 3129 3129 3129 3129 3129 3129 3130 3131 3131 3132 3132 3132 3133 3133 3133 3133 3134 3134 3134 3134 3134 3134 3134 3134 3133 3131
3113 3114 3114 3114 3114 3115 3115 3116 3117 3117 3118 3118 3119 3120 3121 3121 3122 3122 3123 3124 3123 3123 3123 3124 3126 3127 3127 3127 3127 3127 3127 3127 3127 3127 3127 3126 3125 3124 3123 3124 3125 3125 3125 3126 3126 3127 3128 3129 3130 3130 3131 3131 3131 3131 3131 3132 3131 3131 3131 3131 3131 3129 3128
3111 3112 3112 3113 3113 3114 3114 3114 3114 3115 3115 3115 3116 3117 3118 3119 3119 3120 3120 3121 3120 3120 3119 3120 3123 3124 3124 3124 3125 3125 3125 3124 3123 3123 3122 3122 3122 3120 3118 3120 3122 3122 3122 3122 3122 3123 3124 3126 3127 3127 3128 3128 3128 3128 3128 3128 3128 3128 3128 3127 3127 3126 3125
3109 3110 3110 3111 3111 3112 3112 3112 3112 3112 3112 3113 3113 3114 3115 3115 3116 3116 3117 3117 3118 3117 3115 3116 3120 3121 3120 3121 3122 3122 3122 3121 3119 3119 3118 3117 3118 3117 3115 3116 3118 3119 3119 3120 3120 3120 3122 3123 3124 3125 3125 3125 3125 3125 3125 3125 3125 3125 3125 3124 3124 3123 3122
3107 3108 3108 3109 3109 3110 3110 3109 3110 3110 3110 3110 3111 3111 3112 3112 3113 3113 3113 3114 3114 3114 3113 3113 3116 3117 3117 3118 3118 3119 3119 3117 3116 3115 3114 3114 3115 3115 3113 3113 3114 3115 3116 3118 3118 3119 3120 3121 3122 3122 3122 3122 3122 3122 3122 3122 3122 3122 3121 3121 3120 3119 3119
3105 3106 3106 3107 3107 3108 3108 3108 3107 3107 3108 3108 3108 3109 3109 3109 3110 3110 3110 3110 3110 3110 3109 3110 3112 3113 3113 3114 3114 3114 3114 3114 3113 3112 3112 3112 3112 3112 3111 3111 3112 3113 3114 3115 3117 3117 3118 3119 3119 3119 3119 3119 3119 3119 3119 3119 3119 3118 3118 3118 3117 3116 3115
3102 3103 3104 3104 3105 3105 3106 3106 3105 3105 3106 3106 3106 3106 3106 3106 3106 3106 3106 3106 3107 3106 3105 3106 3108 3109 3109 3109 3110 3110 3110 3110 3109 3109 3109 3109 3110 3110 3110 3110 3110 3111 3112 3114 3115 3115 3115 3116 3116 3116 3116 3116 3116 3116 3116 3116 3115 3115 3115 3114 3113 3112 3111
3099 3100 3101 3101 3101 3102 3103 3103 3103 3103 3103 3103 3103 3102 3102 3102 3102 3102 3102 3102 3103 3102 3101 3102 3104 3105 3105 3106 3106 3107 3107 3106 3106 3107 3107 3107 3107 3107 3108 3108 3109 3109 3111 3112 3112 3112 3113 3113 3113 3113 3113 3112 3112 3113 3113 3113 3112 3111 3111 3110 3109 3109 3108
3095 3096 3097 3097 3097 3098 3099 3099 3099 3099 3099 3099 3099 3098 3098 3098 3098 3098 3098 3098 3098 3098 3097 3098 3100 3101 3102 3102 3103 3104 3104 3103 3103 3103 3104 3104 3104 3105 3106 3106 3107 3108 3108 3109 3109 3110 3110 3110 3110 3110 3110 3109 3109 3109 3110 3109 3108 3107 3107 3106 3106 3105 3104
3091 3092 3092 3092 3092 3093 3094 3094 3095 3095 3095 3095 3095 3094 3093 3093 3093 3093 3093 3094 3094 3093 3093 3094 3096 3097 3098 3099 3099 3100 3100 3100 3100 3100 3101 3101 3102 3103 3103 3104 3105 3106 3106 3107 3107 3107 3107 3107 3107 3107 3106 3106 3106 3105 3105 3106 3105 3104 3103 3103 3102 3100 3099
3086 3087 3087 3088 3087 3088 3089 3089 3089 3090 3090 3091 3091 3090 3088 3088 3088 3088 3088 3089 3089 3089 3090 3091 3092 3093 3094 3095 3096 3096 3097 3097 3097 3097 3098 3099 3099 3100 3101 3102 3103 3103 3103 3104 3104 3104 3104 3104 3104 3104 3103 3103 3102 3102 3101 3101 3101 3100 3099 3098 3097 3096 3094
3081 3081 3082 3082 3082 3083 3083 3084 3084 3084 3085 3086 3086 3085 3084 3084 3084 3083 3084 3084 3084 3084 3086 3087 3088 3089 3090 3091 3092 3093 3093 3094 3094 3094 3095 3096 3096 3096 3098 3100 3100 3100 3101 3101 3101 3101 3101 3101 3101 3101 3101 3100 3100 3099 3098 3097 3097 3097 3096 3095 3093 3092 3090
3075 3075 3076 3076 3077 3077 3078 3078 3079 3079 3080 3081 3081 3081 3081 3080 3079 3079 3081 3081 3080 3080 3082 3083 3084 3085 3086 3087 3089 3089 3090 3091 3091 3092 3093 3093 3092 3093 3095 3097 3097 3097 3098 3098 3098 3098 3098 3098 3098 3098 3098 3097 3097 3096 3095 3094 3094 3093 3092 3091 3089 3088 3086
3068 3068 3069 3069 3070 3071 3072 3073 3074 3074 3075 3075 3076 3076 3076 3076 3075 3075 3077 3078 3077 3077 3078 3079 3081 3082 3083 3084 3085 3086 3087 3087 3088 3089 3089 3089 3089 3090 3093 3093 3093 3094 3094 3095 3095 3095 3095 3095 3095 3094 3094 3094 3093 3093 3092 3091 3090 3090 3089 3087 3085 3084 3083
Wind_Speed
2 4 5 6 7 8 9 9 10 12 12 13 13 13 14 14 13 11 10 8 6 5 5 5 7 9 10 11 12 12 12 11 11 11 11 11 12 12 12 11 10 9 9 9 9 8 7 6 7 7 7 6 6 7 7 7 7 7 8 9 9 9 10
3 5 7 8 9 9 10 11 12 12 12 12 12 12 12 12 13 13 10 8 6 4 4 4 5 7 9 11 11 11 12 12 12 12 10 11 11 11 11 10 9 9 8 8 9 8 6 5 5 5 6 6 6 6 7 7 8 8 9 10 10 10 10
4 6 7 9 11 11 12 13 14 15 14 13 12 11 11 12 13 13 10 7 5 4 4 5 5 7 8 8 8 9 11 12 12 11 11 11 11 9 8 9 9 8 7 5 6 6 6 5 4 4 5 5 5 6 7 8 9 9 9 9 9 9 8
4 6 8 10 12 13 15 16 17 17 17 16 15 14 12 11 12 12 10 7 5 4 4 5 6 6 6 6 6 6 7 9 10 9 10 11 9 8 8 8 8 8 6 5 5 6 6 5 4 4 4 4 5 6 7 8 9 9 8 7 7 7 7
6 7 9 11 13 15 17 18 18 18 17 18 18 16 14 12 10 10 10 7 5 4 4 5 6 6 5 5 5 4 5 6 6 7 7 8 7 7 7 7 7 7 5 4 4 5 4 3 3 4 4 3 4 4 5 6 6 6 6 6 6 7 7
8 9 11 12 14 16 18 18 18 18 18 19 19 15 12 10 8 9 9 6 4 3 4 5 5 6 6 6 6 5 5 5 5 6 7 7 7 7 7 8 7 7 6 5 4 4 3 3 3 3 2 1 2 2 3 3 4 5 5 6 7 7 7
10 10 12 13 15 17 18 19 18 19 20 18 14 9 7 7 6 7 7 5 4 4 4 5 6 6 6 7 7 6 6 6 6 7 8 8 8 8 9 9 8 8 7 6 5 5 4 4 3 3 2 1 1 2 3 4 4 5 5 5 5 6 6
12 12 13 15 16 17 18 18 18 19 17 11 6 3 3 4 5 6 5 4 4 4 5 6 6 6 6 7 7 8 7 7 7 8 9 9 9 10 9 8 7 7 6 6 6 6 5 5 5 4 3 2 3 4 3 1 4 4 3 4 4 4 5
14 14 15 16 17 18 18 17 17 16 10 4 1 1 0 2 3 4 4 3 4 4 5 6 7 7 7 7 8 9 9 9 9 9 9 9 10 10 9 8 7 7 7 6 6 5 4 5 4 5 5 5 5 4 5 4 3 2 2 3 3 3 4
15 15 17 17 18 19 18 16 15 12 6 2 1 1 0 2 3 3 3 4 4 5 6 7 7 8 9 9 9 10 10 10 10 10 10 10 10 10 9 9 8 8 7 7 6 5 5 5 5 6 6 7 6 2 2 3 1 0 1 2 3 3 4
16 16 18 18 18 19 17 15 13 10 6 3 1 0 0 2 3 4 5 5 6 7 7 8 9 10 10 11 11 12 12 12 12 12 12 11 11 11 10 9 9 9 8 8 8 7 7 7 7 7 5 5 6 3 2 2 2 1 2 3 4 5 6
17 17 18 19 19 18 15 13 11 8 7 4 1 1 1 2 4 5 6 7 7 8 9 9 10 11 11 12 12 12 13 13 13 13 13 12 12 11 10 9 9 9 8 8 7 7 7 7 6 6 4 3 3 3 3 3 2 3 3 5 6 6 7
17 18 18 19 19 17 14 12 10 9 8 4 2 2 2 4 5 6 7 7 8 8 9 9 9 10 10 11 11 11 12 12 12 12 12 11 11 10 9 8 7 7 6 6 5 4 4 4 3 2 2 2 2 2 3 4 5 5 5 6 6 6 7
19 19 18 17 16 15 14 12 10 10 9 5 4 3 4 5 6 7 8 8 9 8 8 7 7 8 8 8 8 9 9 10 10 10 10 9 9 8 7 6 5 4 4 3 3 2 2 1 1 2 3 3 3 4 5 7 8 7 7 7 7 8 9
19 17 15 15 15 14 14 13 10 11 10 7 6 5 6 7 8 9 9 10 9 8 7 7 6 6 6 7 6 6 6 7 6 7 6 6 6 5 4 3 3 2 2 2 2 3 3 3 5 5 5 6 6 7 7 9 10 9 8 8 8 9 11
15 13 13 14 14 13 13 12 11 12 10 8 8 7 7 8 9 10 11 11 10 9 8 7 6 6 6 6 6 5 5 4 4 4 4 4 4 4 3 3 3 3 4 4 5 5 5 6 7 8 8 9 9 9 10 10 11 11 11 11 11 11 11
10 10 11 12 11 10 10 10 11 13 12 10 10 9 8 9 10 11 12 12 11 10 9 9 8 8 7 7 6 6 5 5 5 5 6 6 6 6 6 6 6 6 6 6 7 8 8 9 10 10 10 12 12 12 12 12 12 13 14 14 13 13 13
6 7 7 8 8 9 9 10 11 14 14 12 12 12 11 10 11 12 12 12 12 12 11 11 11 10 10 9 9 9 8 8 8 8 9 9 9 9 9 9 9 9 9 9 9 10 10 11 13 14 14 15 16 15 14 14 14 14 14 14 15 15 16
6 6 6 7 8 8 9 10 12 14 15 15 14 14 14 13 12 12 12 13 13 13 13 12 12 12 12 12 12 11 11 11 11 12 12 13 13 13 13 13 12 12 11 11 11 11 12 12 14 16 16 17 19 17 14 15 16 15 14 15 17 18 18
9 9 9 9 9 9 10 11 13 15 16 17 16 16 16 16 16 15 14 14 14 14 14 14 14 14 14 15 15 15 15 15 15 16 16 16 17 17 17 17 16 15 14 13 12 12 13 13 15 16 16 17 17 15 13 14 15 14 15 16 18 18 19
11 12 12 11 10 9 9 11 13 15 17 18 18 18 18 18 18 18 18 18 17 18 18 17 17 17 17 17 17 18 18 18 19 19 19 20 21 21 21 21 20 19 17 16 15 15 15 15 15 16 16 16 15 13 11 11 13 14 15 16 18 18 19
13 13 12 11 11 9 8 10 12 15 18 19 20 20 20 20 20 21 21 21 21 21 20 20 20 19 19 19 19 19 21 21 21 22 22 23 24 25 25 25 24 23 21 20 19 18 17 17 17 16 15 13 12 12 11 12 13 14 14 16 17 19 20
14 13 12 12 10 9 9 11 12 15 18 20 22 23 23 22 22 22 23 23 24 24 23 23 23 21 20 21 20 21 22 23 23 25 25 26 27 27 28 29 29 28 27 26 23 20 18 17 17 17 15 13 13 13 13 14 14 14 14 16 18 19 21
14 14 14 14 13 12 12 13 13 15 17 20 23 24 24 24 24 25 24 24 26 27 27 28 27 24 24 24 23 24 25 25 27 27 28 29 30 31 31 31 31 31 30 30 26 21 18 18 17 17 15 14 14 15 15 15 16 16 16 16 18 21 24
15 16 16 16 15 15 16 16 16 16 17 19 21 23 25 26 27 27 26 26 27 29 30 30 29 28 28 28 28 28 28 29 30 30 30 32 32 34 35 33 32 32 32 30 27 21 17 17 17 17 16 15 15 16 16 16 17 17 18 19 20 22 25
16 16 17 17 17 18 18 19 20 20 20 20 19 21 24 26 28 29 28 28 30 32 33 31 29 29 31 30 30 30 30 31 33 32 33 35 35 37 38 34 32 31 28 24 21 18 15 16 16 16 15 15 15 16 17 18 18 18 20 21 22 24 26
18 18 18 19 19 19 20 22 22 23 23 22 20 19 22 25 28 31 32 32 34 35 36 34 30 30 30 29 29 30 30 33 35 36 37 38 37 37 37 34 29 23 17 13 13 12 12 13 14 14 14 15 16 17 18 19 19 20 21 22 24 25 26
20 20 21 21 21 22 23 24 24 25 25 24 23 22 23 25 27 31 33 35 36 37 38 37 35 33 33 31 31 31 32 34 37 38 38 37 34 32 31 30 25 17 12 9 8 9 10 11 12 14 15 16 17 18 19 19 19 21 22 23 24 25 26
21 21 22 22 23 24 25 26 26 26 26 26 26 26 26 25 27 30 31 32 33 35 36 36 34 34 34 33 31 30 31 33 34 34 31 28 24 20 19 19 17 14 12 10 9 11 12 12 13 15 16 17 18 19 19 20 21 22 23 24 25 26 27
20 21 21 21 23 23 24 25 27 27 26 26 27 27 27 27 28 29 30 30 30 30 31 31 29 29 29 28 27 27 28 29 28 25 23 21 18 15 14 14 13 13 13 12 12 13 13 14 15 16 17 18 19 19 20 21 22 22 23 24 25 27 28
23 23 23 24 25 25 25 26 27 28 29 29 30 30 30 30 29 28 30 31 29 30 31 29 27 26 26 25 24 25 25 24 22 20 19 18 17 15 14 14 14 14 13 13 13 14 14 16 17 18 18 19 20 21 20 20 22 23 24 25 26 28 29
27 28 28 29 30 30 29 29 30 31 31 32 32 33 33 32 30 30 31 31 30 31 32 30 27 27 26 25 25 25 23 21 20 19 18 18 18 16 15 15 15 15 15 15 15 15 16 17 18 19 20 20 22 22 21 20 22 24 25 26 28 29 30
32 32 32 32 33 33 33 32 33 33 33 33 33 34 35 35 34 33 33 32 31 31 30 28 28 27 27 26 26 25 24 22 21 19 18 19 19 18 18 17 16 16 17 16 16 17 18 18 19 20 20 21 22 23 22 21 23 25 27 28 30 31 32
35 35 34 33 34 34 34 34 35 35 36 36 36 37 39 38 35 34 33 31 30 28 26 26 26 25 25 26 26 25 25 24 22 21 20 21 21 21 20 18 18 18 18 18 18 19 19 19 19 19 20 20 22 23 24 24 25 27 29 30 31 32 32
37 37 36 36 36 36 36 36 36 36 37 37 37 39 40 37 32 31 30 28 28 28 27 26 26 26 25 26 26 26 26 26 23 22 22 22 23 23 21 19 19 19 19 19 20 20 20 20 19 19 20 21 22 23 25 27 27 28 30 31 31 32 33
40 40 40 40 40 39 39 38 37 38 38 38 38 39 40 37 32 31 30 27 27 29 27 26 26 27 26 26 26 27 27 27 25 23 22 23 24 24 21 20 20 21 21 21 21 21 21 21 21 21 22 22 23 24 26 28 29 29 30 31 32 32 34
44 44 45 45 44 43 42 41 40 40 40 40 40 40 40 38 36 35 35 32 29 28 27 26 26 26 25 24 25 26 27 27 26 25 24 25 25 24 22 22 23 22 22 23 22 22 22 22 23 24 24 25 25 26 27 28 29 30 31 32 33 34 36
Wind_Direction
23 357 354 349 344 342 341 340 337 337 338 340 344 348 349 342 332 327 317 303 287 269 265 263 266 262 250 241 237 237 248 254 249 245 248 253 254 257 259 262 267 264 251 236 230 235 236 230 241 253 259 268 281 284 292 302 302 298 297 296 293 289 286
344 343 346 343 340 338 337 336 332 331 331 329 331 338 344 341 330 322 318 310 301 279 262 254 261 264 255 244 234 226 232 240 238 236 242 247 248 250 253 251 252 252 244 227 222 232 243 242 244 251 252 259 273 281 287 289 291 293 292 294 295 295 293
325 333 337 335 335 335 332 331 328 324 321 315 311 313 325 334 329 319 313 304 295 279 248 242 258 266 258 246 236 223 219 223 225 226 227 230 237 244 245 242 240 239 237 231 226 226 228 227 229 238 242 252 260 265 276 283 287 290 291 293 296 296 297
304 315 324 327 328 330 328 326 323 320 319 314 304 296 298 313 322 315 304 293 286 266 232 230 243 248 246 239 232 219 214 216 216 216 214 214 223 233 231 233 238 239 236 235 223 213 213 212 203 212 229 245 255 261 273 281 284 289 292 294 295 296 299
288 300 313 320 322 324 324 323 321 318 318 316 308 296 284 288 305 306 296 287 277 252 229 228 227 224 222 220 212 207 210 209 202 199 197 197 205 214 216 218 227 230 229 225 207 201 211 207 192 198 215 246 264 266 273 281 286 292 295 298 300 303 308
277 294 306 312 316 318 320 321 320 318 318 314 309 299 279 271 285 292 284 276 264 241 226 223 217 212 204 194 189 192 198 192 179 172 172 174 178 184 189 191 194 194 189 182 173 177 173 158 174 186 187 251 297 308 302 298 299 301 303 308 312 316 323
272 287 297 302 307 311 315 316 317 319 320 315 308 295 263 253 269 276 270 260 244 224 214 211 209 207 201 195 191 189 194 191 174 165 167 164 163 169 176 178 179 175 173 170 165 165 158 153 172 170 144 112 25 26 4 336 319 320 324 327 332 338 344
268 278 286 292 298 304 309 313 316 320 321 317 309 289 237 243 261 260 253 244 229 213 205 200 197 197 194 192 190 186 190 192 179 173 173 167 164 169 171 170 171 167 166 172 176 177 171 172 181 175 146 105 103 113 116 286 312 344 353 345 352 354 358
264 272 278 285 291 298 305 309 315 320 319 313 329 352 303 255 254 248 236 221 209 200 196 190 184 183 181 181 185 183 181 181 178 174 172 166 163 166 166 165 166 166 167 170 178 186 181 179 179 167 146 117 109 135 161 202 283 347 358 344 1 2 3
258 264 273 281 287 295 301 304 310 312 295 258 329 22 351 236 227 219 205 192 186 184 183 179 172 170 171 172 175 176 172 170 169 165 163 159 158 158 158 158 157 157 157 153 155 158 149 148 149 149 151 135 126 163 228 210 226 335 326 325 342 346 351
254 261 272 280 286 292 295 298 304 295 256 236 262 54 239 223 206 193 184 178 175 175 172 168 165 162 161 162 162 162 159 155 153 151 149 147 145 143 141 142 139 134 132 130 130 132 131 133 134 138 152 146 136 151 250 227 220 293 307 312 328 335 344
256 266 275 280 284 288 286 289 293 271 233 213 196 198 206 203 196 185 177 173 169 169 166 163 162 160 158 158 158 157 153 148 146 144 142 139 135 131 128 126 124 120 118 119 121 125 129 132 134 136 141 136 129 146 182 211 254 294 297 306 321 332 343
264 271 277 278 280 281 278 282 281 251 220 196 184 208 200 194 189 177 171 168 166 167 167 165 163 159 158 158 157 154 149 145 143 139 136 133 129 126 125 121 117 114 112 114 116 117 120 124 132 143 152 168 185 202 217 248 272 279 288 303 315 325 336
266 271 274 273 272 274 276 281 273 243 224 207 202 212 204 191 181 173 168 168 169 172 173 170 165 159 158 158 155 150 145 142 139 136 135 133 130 129 130 128 127 127 126 131 136 142 157 185 222 247 256 252 254 255 259 273 280 280 286 298 307 316 323
264 266 265 263 265 268 269 271 261 238 226 212 203 207 201 191 183 177 174 175 178 180 179 176 171 166 163 160 157 152 147 143 140 140 140 140 142 146 152 157 166 177 191 210 227 228 225 235 244 250 257 262 267 266 268 279 287 287 284 284 295 307 315
255 254 254 260 266 266 258 256 248 232 221 207 203 207 204 199 193 186 184 186 187 187 187 185 183 183 182 178 176 174 168 166 167 171 176 182 188 196 210 227 241 254 270 278 279 278 274 266 265 269 270 269 271 272 272 276 283 289 290 286 289 297 305
240 245 251 259 265 263 253 248 239 229 220 206 205 210 210 208 205 199 197 198 197 197 197 196 196 199 201 201 204 208 209 213 217 222 227 230 233 240 248 257 265 270 277 282 283 285 285 282 280 282 282 280 277 275 276 277 277 283 291 292 292 296 303
242 252 255 256 259 259 253 244 237 232 225 213 209 215 218 218 215 211 207 207 207 208 207 207 208 209 212 214 218 222 229 237 244 250 257 259 260 262 263 267 270 271 272 273 274 274 273 275 278 279 283 282 277 275 279 282 280 281 288 292 291 294 300
259 261 261 259 259 262 256 242 236 236 232 224 218 219 222 224 224 223 219 216 215 216 216 218 218 219 221 224 227 231 237 242 246 253 259 262 264 265 268 269 268 267 267 267 269 269 267 269 271 273 278 279 276 278 280 277 277 280 283 289 295 299 302
261 259 254 250 251 258 257 244 237 237 236 232 228 226 227 228 228 230 230 228 227 227 227 228 229 231 233 235 238 242 246 248 251 255 258 259 261 262 264 265 264 262 262 265 267 267 267 268 269 271 275 275 275 281 280 271 273 279 284 291 299 304 307
260 254 249 247 249 255 260 251 242 240 238 236 233 232 233 233 232 233 235 235 236 236 237 238 239 240 241 244 248 252 254 255 257 259 260 262 263 264 263 264 263 262 262 266 273 276 273 272 272 274 276 275 276 281 278 271 272 279 288 296 301 304 307
255 253 253 254 252 253 261 259 249 244 241 238 236 235 237 237 236 236 236 237 239 242 244 245 247 249 250 252 255 257 259 261 261 262 264 265 266 267 268 269 268 266 265 269 276 280 278 276 275 276 276 276 279 281 280 277 277 282 290 297 299 299 300
249 256 264 268 267 266 269 265 257 251 246 241 237 236 238 240 240 240 241 241 243 245 248 250 252 254 256 258 260 262 264 264 265 266 267 268 269 269 270 271 269 268 268 271 274 276 275 274 275 276 276 276 279 281 281 282 284 287 291 293 294 293 295
244 254 263 269 273 275 272 268 265 259 253 247 242 239 240 242 243 243 244 245 247 248 249 252 255 256 258 261 264 265 267 268 269 269 270 270 271 271 271 269 267 267 269 267 266 268 271 270 270 272 273 274 277 280 281 285 288 289 291 292 292 292 295
238 247 255 261 266 269 269 270 269 266 262 256 250 245 245 247 247 246 245 246 248 250 251 251 253 256 258 261 265 267 270 273 273 273 274 274 274 274 273 271 273 278 278 268 259 258 262 264 265 267 269 272 277 280 283 287 291 292 293 295 294 293 296
239 244 250 255 260 263 266 269 270 271 270 266 260 253 251 252 253 253 251 250 251 254 254 253 252 255 257 259 264 268 270 272 274 275 276 274 274 274 273 275 280 284 282 267 254 252 256 261 263 265 269 274 279 283 287 292 295 295 295 296 296 295 296
241 244 247 251 255 259 263 265 266 268 271 273 271 264 258 257 257 257 257 256 256 258 260 260 258 258 258 259 263 266 269 272 275 276 276 275 276 275 275 278 281 279 271 259 255 259 262 262 263 266 272 279 283 287 291 296 298 297 296 296 296 296 297
245 248 250 253 255 257 260 262 263 264 265 269 271 269 266 264 263 261 259 258 258 259 261 263 263 262 263 263 264 266 268 271 273 275 275 276 278 277 275 274 272 267 266 266 263 263 262 262 267 274 280 286 289 292 296 298 298 297 297 296 297 298 301
252 255 257 259 259 260 261 262 263 265 266 267 268 269 269 269 268 267 264 261 262 263 262 263 264 264 265 265 265 264 266 268 270 272 272 272 273 270 265 260 257 259 267 268 262 265 270 273 277 281 286 289 291 295 297 298 298 297 297 297 299 302 304
255 258 261 263 263 263 263 263 265 268 270 271 271 270 270 269 268 269 268 266 266 266 265 263 262 262 261 260 259 258 260 262 264 264 262 261 260 255 249 248 249 253 258 259 262 270 275 279 282 285 288 290 292 294 296 297 297 297 299 301 303 304 305
260 262 264 265 265 266 265 264 265 268 271 273 274 274 273 270 267 266 267 267 265 265 265 264 261 259 256 254 253 253 255 256 254 252 252 251 248 244 243 244 246 249 253 258 264 269 273 278 282 285 289 291 293 295 297 298 298 300 303 304 304 304 304
265 267 268 269 270 270 269 267 267 268 269 271 272 273 272 269 267 265 265 266 265 263 263 262 259 255 252 251 251 252 252 248 244 244 245 244 242 239 238 239 242 248 255 259 263 267 273 280 285 288 291 294 295 298 301 302 302 303 304 304 303 303 304
269 269 270 270 271 272 271 271 271 270 271 271 270 270 270 269 267 266 266 266 264 262 261 259 253 250 250 250 249 248 246 242 241 241 239 239 240 238 237 239 243 249 254 257 262 268 274 281 288 292 296 299 301 303 305 304 304 305 305 305 305 305 305
270 269 269 269 269 269 269 270 271 271 271 270 269 269 269 268 265 264 264 264 261 260 259 255 251 249 249 248 246 243 241 238 238 237 234 237 242 241 239 242 246 250 254 257 262 268 274 280 286 292 298 303 305 307 306 306 306 307 308 309 309 308 307
270 269 268 267 266 266 267 267 267 268 268 268 267 267 268 268 265 261 261 260 258 256 253 248 247 248 246 243 241 239 237 235 235 234 234 238 243 245 243 243 246 250 253 257 262 268 274 281 287 292 297 302 305 307 306 306 306 307 309 310 310 310 309
271 270 269 268 266 265 265 264 264 265 265 264 264 264 265 265 264 260 258 257 255 252 248 242 241 243 242 240 237 235 234 234 232 231 233 237 241 245 246 247 249 252 254 258 264 270 276 282 287 292 296 300 303 305 305 305 305 306 307 309 309 309 308
270 270 269 267 266 264 263 262 262 262 263 262 260 260 260 261 261 261 259 255 251 250 247 240 237 239 241 239 237 234 233 232 231 230 233 237 241 246 250 252 254 256 258 263 268 274 278 283 287 291 296 299 301 303 304 303 303 304 305 307 307 308 308